Regional Weather Roundup
Issued by NWS Upton, NY

Current Version | Previous Version | Text Only | Print | Product List | Glossary On
Versions: 1 2 3 4 5 6 7 8 9 10 11 12 13 14 15 16 17 18 19 20 21 22 23 24 25 26 27 28 29 30 31 32 33 34 35 36 37 38 39 40 41 42 43 44 45 46 47 48 49 50
000
ASUS41 KOKX 280018
RWROKX

REGIONAL WEATHER ROUNDUP
NATIONAL WEATHER SERVICE NEW YORK NY
800 PM EDT WED MAY 27 2015

NOTE: "FAIR" INDICATES FEW OR NO CLOUDS BELOW 12,000 FEET WITH NO
SIGNIFICANT WEATHER AND/OR OBSTRUCTIONS TO VISIBILITY.

NYZ071-072-176-178-NJZ106-104-280100-
NEW YORK CITY METRO AREA


CITY           SKY/WX    TMP DP  RH WIND       PRES   REMARKS
CENTRAL PARK   LGT RAIN  75  64  68 CALM      30.16R
LAGUARDIA APRT MOCLDY    71  60  68 VRB5      30.13R
KENNEDY INTL   MOCLDY    64  58  80 S18G28    30.16R
NEWARK/LIBERTY LGT RAIN  73  67  81 SW8       30.12R
BRNX BOT. GARD   N/A     66  64  94 E3        30.15R
TETERBORO      LGT RAIN  78  68  71 S10G20    30.11R
$$

NYZ177-179-078>081-280100-
LONG ISLAND NEW YORK

CITY           SKY/WX    TMP DP  RH WIND       PRES   REMARKS
FARMINGDALE    PTCLDY    67  60  78 SW18G28   30.16R
ISLIP          MOCLDY    67  60  78 SW18G25   30.15R
SHIRLEY        CLEAR     65  59  81 S14G22    30.17R
WESTHAMPTON    CLEAR     64  59  83 S12G23    30.19R
MONTAUK POINT    N/A     63  58  83 S9G21     30.20R
$$

NYZ052-065-067-280100-
HUDSON VALLEY

CITY           SKY/WX    TMP DP  RH WIND       PRES   REMARKS
WHITE PLAINS   CLOUDY    67  64  90 S7        30.14R FOG
NEWBURGH       MOCLDY    70  68  94 W6        30.14R
MONTGOMERY     CLOUDY    71  68  90 N3        30.12R
POUGHKEEPSIE   LGT RAIN  71  67  87 CALM      30.13R
ALBANY         CLOUDY    70  66  87 S10       30.06S
$$

NJZ001-105-106-008-010-013-015-019>022-104-280100-
NEW JERSEY

CITY           SKY/WX    TMP DP  RH WIND       PRES   REMARKS
NEWARK/LIBERTY LGT RAIN  73  67  81 SW8       30.12R
TETERBORO      LGT RAIN  78  68  71 S10G20    30.11R
CALDWELL       LGT RAIN  73  69  87 SW5       30.13R FOG
MORRISTOWN     RAIN      73  70  88 SW5       30.13R
SOMERVILLE     CLOUDY    73  69  87 S3        30.10R
SUSSEX         CLOUDY    71  66  84 S3        30.14R
ANDOVER          N/A     71  69  93 CALM      30.12R
TRENTON        CLOUDY    73  68  84 S6        30.12R
MILLVILLE      PTCLDY    73  66  78 VRB7      30.15R
ATLANTIC CITY  CLEAR     70  62  76 S13G22    30.15R
WRIGHTSTOWN    CLOUDY    76  67  73 S6        30.12R
TOMS RIVER     PTCLDY   N/A N/A N/A S8        30.15R
BELMAR         PTCLDY    73  61  64 SW9       30.14R
$$

PAZ047>061-062-071-280100-
EASTERN PENNSYLVANIA

CITY           SKY/WX    TMP DP  RH WIND       PRES   REMARKS
PHILADELPHIA   CLOUDY    75  69  81 S7        30.13R
ALLENTOWN      CLOUDY    72  68  87 W5        30.11R
SCRANTON       PTCLDY    73  69  87 SW3       30.09S
$$

CTZ002-004>006-009-010-012-RIZ004-006-007-MAZ004-011-015-280100-
SOUTHERN NEW ENGLAND
 IN CT

CITY           SKY/WX    TMP DP  RH WIND       PRES   REMARKS
BRADLEY INTL   TSTM      73  65  75 SW10      30.16R
HARTFORD       MOCLDY    72  63  73 S12G18    30.15R
DANBURY        LGT RAIN  69  64  84 SE3       30.15F
WTRBRY/OXFORD  CLOUDY    70  63  78 CALM      30.16S THUNDER
BRIDGEPORT     MOCLDY    69  62  78 SW8       30.16R
MERIDEN        MOCLDY    71  62  73 W8        30.18R
NEW HAVEN      MOCLDY    67  61  81 VRB3      30.17R
CHESTER        CLOUDY    66  63  88 SW13G20   30.18R
GROTON         PTCLDY    65  58  78 SW15      30.17R
WILLIMANTIC    CLOUDY    71  63  75 S13G18    30.16R

 IN RI

CITY           SKY/WX    TMP DP  RH WIND       PRES   REMARKS
PROVIDENCE     MOCLDY    70  60  70 SW14G23   30.17R
BLOCK ISLAND   CLEAR     59  54  82 SW12      30.21R
WESTERLY       CLOUDY    64  58  80 SW6       30.19R

 IN MA

CITY           SKY/WX    TMP DP  RH WIND       PRES   REMARKS
BOSTON         PTCLDY    73  64  73 SW16G26   30.11R
WORCESTER      PTCLDY    71  62  73 SW21G31   30.15R
WESTFIELD      LGT RAIN  70  65  84 SW9       30.13S
PROVINCETOWN   PTCLDY    63  55  77 SW20G26   30.17R
NANTUCKET      CLEAR     61  57  87 SW12      30.21R
$$

ANZ330-335-338-340-345-350-353-355-280100-
COASTAL MARINE OBSERVATIONS


STATION/POSITION TIME  SKY/WX   TEMP    WIND        PRES    VSBY  WAVE
                                AIR SEA DIR/SP/G                  HT/PER
                 (UTC)          (F)     (DEG/KT/KT) (MB)    (MI)  (FT/S)
NY HARB ENTRANCE 2350            61 53  200/ 19/ 23 1020.0          5/ 6
4S FIRE IS       2303               57                N/A           5/ 6
20S FIRE ISLAND  2350            62 57  200/ 16/ 17 1021.3          5/ 6
GREAT SOUTH BAY  2300            65 69  220/ 19/ 25   N/A
23SW MTP         2350            60 54  210/ 16/ 17 1021.9          4/ 6
HUDSON CANYON    NOT AVBL
KINGS POINT      2300            66 58  200/ 16/ 22 1018.9
CENTRAL LI SOUND 2300            65 56  210/ 19/ 23   N/A
EASTERN LI SOUND 2300            62     250/  6/ 10   N/A
ROBBINS REEF     2300            69     160/ 12/ 13 1018.3
$$


>>>>>>>>>>>>>>>>>>>>>>>>>>>> KEY <<<<<<<<<<<<<<<<<<<<<<<<<<<
>                                                          <
>     SKY/WX - SKY CONDITION/PRESENT WEATHER               <
>     TMP    - TEMPERATURE IN FAHRENHEIT                   <
>     DP     - DEWPOINT IN FAHRENHEIT                      <
>     RH     - RELATIVE HUMIDITY IN PERCENT                <
>     WIND   - DIRECTION AND SPEED IN MPH                  <
>     PRES   - MEAN SEA LEVEL PRESSURE IN INCHES OF HG     <
>     WCI    - WIND CHILL INDEX                            <
>     VSB    - VISIBILITY IN MILES                         <
>     HX     - HEAT INDEX                                  <
>     TC     - TEMPERATURE IN CELSIUS                      <
>     VRB    - VARIABLE WIND DIRECTION                     <
>                                                          <
>>>>>>>>>>>>>>>>>>>>>>>>>>>> KEY <<<<<<<<<<<<<<<<<<<<<<<<<<<





USA.gov is the U.S. government's official web portal to all federal, state and local government web resources and services.